Change the Weather History Date:

Tuesday, October 11, 2011

  Actual Average Record
Temperature  
Mean Temperature 79 °F 79 °F  
Max Temperature 84 °F 84 °F 88 °F (1956)
Min Temperature 73 °F 73 °F 64 °F (1965)
Degree Days  
Heating Degree Days 0 0  
Month to date heating degree days 0 0  
Since 1 July heating degree days 0 0  
Cooling Degree Days 14 14  
Month to date cooling degree days 163 154  
Year to date cooling degree days 3333 3113  
Growing Degree Days 28 (Base 50)    
Moisture  
Dew Point 67 °F    
Average Humidity 70    
Maximum Humidity 84    
Minimum Humidity 55    
Precipitation  
Precipitation T in 0.10 in 0.78 in (1965)
Month to date precipitation 0.62 1.13  
Year to date precipitation 32.70 24.70  
Snow  
Snow 0.00 in - - ()
Month to date snowfall 0.0  
Since 1 July snowfall 0.0  
Since 1 September snowfall 0.0  
Snow Depth 0.00 in    
Sea Level Pressure  
Sea Level Pressure 30.03 in    
Wind  
Wind Speed 12 mph (NE)    
Max Wind Speed 15 mph    
Max Gust Speed 20 mph    
Visibility 10 miles    
Events      
T = Trace of Precipitation, MM = Missing Value Source: NWS Daily Summary

Daily Weather History Graph

Daily Weather History Graph

Search for Another Location

Airport or City:

Trip Planner

Search our weather history database for the weather conditions in past years. The results will help you decide how hot, cold, wet, or windy it might be!

Date:

Astronomy

Oct. 11, 2011 Rise Set
Actual Time 6:31 AM HST 6:15 PM HST
Civil Twilight 6:09 AM HST 6:38 PM HST
Nautical Twilight 5:43 AM HST 7:04 PM HST
Astronomical Twilight 5:17 AM HST 7:30 PM HST
Moon 6:02 PM HST (10/11) 6:15 AM HST (10/11)
Length of Visible Light 12h 28m
Length of Day
11h 43m
Full, 100% of the Moon is Illuminated
Oct 11
Full
Oct 11
Full
Oct 19
Last Quarter
Oct 26
New
Nov 2
First Quarter

Hourly Weather History & Observations

Time (HST) Temp. Heat Index Dew Point Humidity Pressure Visibility Wind Dir Wind Speed Gust Speed Precip Events Conditions
12:37 AM 73.4 °F - 68.0 °F 83% 30.07 in 10.0 mi North 10.4 mph - N/A   Overcast
12:49 AM 73.4 °F - 68.0 °F 83% 30.07 in 10.0 mi North 9.2 mph - N/A   Mostly Cloudy
12:53 AM 73.9 °F - 68.0 °F 82% 30.06 in 10.0 mi North 6.9 mph - N/A   Mostly Cloudy
1:04 AM 73.4 °F - 68.0 °F 83% 30.07 in 10.0 mi North 8.1 mph - N/A   Scattered Clouds
1:13 AM 73.4 °F - 68.0 °F 83% 30.06 in 10.0 mi North 5.8 mph - N/A   Mostly Cloudy
1:53 AM 75.9 °F - 69.1 °F 79% 30.04 in 10.0 mi NE 10.4 mph - N/A   Scattered Clouds
2:20 AM 75.2 °F - 69.8 °F 83% 30.04 in 10.0 mi NE 12.7 mph - N/A   Mostly Cloudy
2:53 AM 75.0 °F - 68.0 °F 79% 30.03 in 10.0 mi ENE 11.5 mph - 0.00 in   Overcast
3:53 AM 75.0 °F - 69.1 °F 82% 30.01 in 10.0 mi NNE 10.4 mph - N/A   Partly Cloudy
4:53 AM 75.9 °F - 66.9 °F 74% 30.01 in 10.0 mi ENE 12.7 mph - N/A   Scattered Clouds
5:53 AM 75.9 °F - 68.0 °F 76% 30.02 in 10.0 mi ENE 13.8 mph - N/A   Scattered Clouds
6:53 AM 75.9 °F - 69.1 °F 79% 30.03 in 10.0 mi ENE 12.7 mph - N/A   Partly Cloudy
7:53 AM 77.0 °F - 66.9 °F 71% 30.04 in 10.0 mi ENE 12.7 mph - N/A   Scattered Clouds
8:53 AM 79.0 °F - 68.0 °F 69% 30.05 in 10.0 mi NE 12.7 mph - N/A   Partly Cloudy
9:53 AM 81.0 °F 83.3 °F 66.9 °F 62% 30.05 in 10.0 mi ENE 12.7 mph - N/A   Partly Cloudy
10:53 AM 81.0 °F 84.1 °F 69.1 °F 67% 30.04 in 10.0 mi ENE 13.8 mph - N/A   Partly Cloudy
11:53 AM 82.9 °F 85.8 °F 68.0 °F 60% 30.04 in 10.0 mi ENE 11.5 mph - N/A   Scattered Clouds
12:53 PM 84.0 °F 86.3 °F 66.0 °F 55% 30.01 in 10.0 mi NE 11.5 mph - N/A   Partly Cloudy
1:53 PM 82.9 °F 85.4 °F 66.9 °F 58% 29.98 in 10.0 mi NE 10.4 mph - N/A   Clear
2:53 PM 82.0 °F 84.5 °F 66.9 °F 60% 29.97 in 10.0 mi ENE 10.4 mph - N/A   Clear
3:53 PM 82.0 °F 84.5 °F 66.9 °F 60% 29.96 in 10.0 mi NE 10.4 mph - N/A   Clear
4:53 PM 79.0 °F - 66.0 °F 64% 29.97 in 10.0 mi NE 9.2 mph - 0.01 in   Partly Cloudy
5:53 PM 78.1 °F - 66.0 °F 66% 29.99 in 10.0 mi NNE 10.4 mph - 0.01 in   Mostly Cloudy
6:53 PM 75.9 °F - 66.0 °F 71% 30.00 in 10.0 mi NNE 10.4 mph - 0.01 in   Clear
7:25 PM 75.2 °F - 66.2 °F 73% 30.01 in 10.0 mi North 6.9 mph - N/A   Mostly Cloudy
7:45 PM 75.2 °F - 68.0 °F 78% 30.02 in 10.0 mi NE 9.2 mph - N/A   Scattered Clouds
7:53 PM 75.9 °F - 68.0 °F 76% 30.02 in 10.0 mi North 8.1 mph - N/A   Partly Cloudy
8:16 PM 77.0 °F - 66.2 °F 69% 30.03 in 10.0 mi NE 13.8 mph - N/A   Mostly Cloudy
8:23 PM 77.0 °F - 66.2 °F 69% 30.03 in 10.0 mi NE 11.5 mph - N/A   Mostly Cloudy
8:53 PM 75.9 °F - 66.0 °F 71% 30.03 in 10.0 mi NE 12.7 mph - N/A   Partly Cloudy
9:53 PM 75.9 °F - 66.9 °F 74% 30.04 in 10.0 mi NE 12.7 mph - N/A   Partly Cloudy
10:53 PM 75.9 °F - 66.9 °F 74% 30.03 in 10.0 mi NE 12.7 mph - N/A   Mostly Cloudy
11:53 PM 75.9 °F - 66.9 °F 74% 30.02 in 10.0 mi NE 12.7 mph - N/A   Partly Cloudy